Regional Weather Roundup
Issued by NWS Cleveland, OH

Home | Current Version | Previous Version | Graphics & Text | Print | Product List | Glossary On
Versions: 1 2 3 4 5 6 7 8 9 10 11 12 13 14 15 16 17 18 19 20 21 22 23 24 25 26 27 28 29 30 31 32 33 34 35 36 37 38 39 40 41 42 43 44 45 46 47 48 49 50
000
ASUS41 KCLE 271310
RWRCLE
OHIO REGIONAL WEATHER ROUNDUP
NATIONAL WEATHER SERVICE CLEVELAND, OH
800 AM EST THU NOV 27 2014

NOTE: "FAIR" INDICATES FEW OR NO CLOUDS BELOW 12,000 FEET WITH NO
SIGNIFICANT WEATHER AND/OR OBSTRUCTIONS TO VISIBILITY.

OHZ001>008-015>018-024>027-034-035-043-044-271400-
   NORTHWEST OHIO

CITY           SKY/WX    TMP DP  RH WIND       PRES   REMARKS
DEFIANCE       CLOUDY    30  18  60 NW9       30.19R WCI  22
FINDLAY        CLOUDY    30  24  78 NW8       30.15R WCI  22
TOLEDO EXPRESS CLOUDY    28  21  75 NW7       30.16R WCI  21
TOLEDO EXEC    CLOUDY    29  21  72 NW8       30.16R WCI  21
LIMA           CLOUDY    30  23  75 NW9       30.16R WCI  22
$$

OHZ009>014-019>023-028>033-038-089-271400-
   NORTHEAST OHIO

CITY           SKY/WX    TMP DP  RH WIND       PRES   REMARKS
CLE-HOPKINS    LGT SNOW  32  28  85 NW12      30.11R WCI  23
CLE-LAKEFRONT  CLOUDY    35  29  78 NW18      30.07R WCI  24
CUY CO. ARPT   LGT SNOW  34  32  93 NW7       30.07R VSB 1   WCI  28
LORAIN-ELYRIA  CLOUDY    31  27  85 N13G20    30.11R WCI  21
ASHTABULA      CLOUDY    32  29  88 CALM      30.05R
AKRON-CANTON   LGT SNOW  32  29  88 W5        30.05R FOG     WCI  27
WOOSTER        LGT SNOW  31  29  92 N12       30.07R FOG     WCI  22
MANSFIELD      CLOUDY    29  27  92 NW12      30.08R WCI  19
YOUNGSTOWN     FLURRIES  31  30  96 CALM      30.03R
$$

OHZ042-051>053-060>062-070>072-077>081-271400-
  SOUTHWEST OHIO

CITY           SKY/WX    TMP DP  RH WIND       PRES   REMARKS
CINC-COVINGTON CLOUDY    29  21  72 NW12      30.21R WCI  19
CINC-LUNKEN    CLOUDY    30  24  78 VRB6      30.23R WCI  24
HAMILTON       CLOUDY    30  24  78 NW9       30.23R WCI  22
DAYTON         CLOUDY    30  25  81 NW9       30.18R WCI  22
WRIGHT-PAT AFB CLOUDY    30  26  84 NW8       30.17R WCI  22
DAYTON GENERAL CLOUDY    29  24  82 NW8       30.17R WCI  21
WILMINGTON     CLOUDY    28  24  85 W12       30.15R FOG     WCI  18
$$

OHZ036-037-039>041-045>050-054>059-063>069-073>076-082>088-271400-
  CENTRAL AND SOUTHEAST OHIO

CITY           SKY/WX    TMP DP  RH WIND       PRES   REMARKS
COLUMBUS       CLOUDY    32  26  78 NW10      30.12R WCI  24
OSU AIRPORT    CLOUDY    31  26  82 NW12      30.13R WCI  22
BOLTON FIELD   CLOUDY    30  27  86 NW7       30.14R FOG     WCI  23
RICKENBACK AFB CLOUDY    31  27  86 NW8       30.13R WCI  23
NEWARK         CLOUDY    32  27  81 NW9       30.10R WCI  24
MARION         CLOUDY    30  25  81 NW10      30.13R WCI  21
LANCASTER      CLOUDY    32  27  81 NW7       30.12R HAZE    WCI  26
ZANESVILLE     CLOUDY    30  25  81 SW3       30.09S
NEW PHILLY     CLOUDY    32  27  81 CALM      30.08R HAZE
$$


USA.gov is the U.S. government's official web portal to all federal, state and local government web resources and services.